Location: Alpino
(32.5215°N, 116.5815°W)
Time: 06:08:53
(UTC+00:00)

Thor Agena Rocket - Pass Details

Date: 13 April 2024
Orbit: 757 x 805 km, 99.1° (Epoch: 28 May)

Event Time Altitude Azimuth Distance (km) Brightness Sun altitude
Rises 11:58:29 0° 1° (N) 3,218 7.1 -16.9°
Reaches altitude 10° 12:00:57 10° 353° (N) 2,289 6.1 -16.5°
Maximum altitude 12:05:25 33° 290° (WNW) 1,248 4.2 -15.6°
Enters shadow 12:07:33 24° 247° (WSW) 1,545 4.4 -15.2°
